Time,TemperatureF,DewpointF,PressureIn,WindDirection,WindDirectionDegrees,WindSpeedMPH,WindSpeedGustMPH,Humidity,HourlyPrecipIn,Conditions,Clouds,dailyrainin,SoftwareType,DateUTC
2013-06-19 00:02:00,55.0,50.0,30.03,SSE,149,0.0,0.0,84,0.00,,,0.00,,2013-06-19 04:02:00,
2013-06-19 00:12:00,54.0,49.0,30.03,SSE,149,0.0,0.0,84,0.00,,,0.00,,2013-06-19 04:12:00,
2013-06-19 00:23:00,54.0,49.0,30.03,SSE,149,0.0,0.0,84,0.00,,,0.00,,2013-06-19 04:23:00,
2013-06-19 00:32:00,54.0,49.0,30.03,SSE,149,0.0,0.0,84,0.00,,,0.00,,2013-06-19 04:32:00,
2013-06-19 00:43:00,54.0,49.0,30.03,SSE,149,0.0,0.0,84,0.00,,,0.00,,2013-06-19 04:43:00,
2013-06-19 00:53:00,54.0,50.0,30.03,SSE,149,0.0,0.0,85,0.00,,,0.00,,2013-06-19 04:53:00,
2013-06-19 01:01:00,54.0,50.0,30.03,SSE,149,0.0,0.0,85,0.00,,,0.00,,2013-06-19 05:01:00,
2013-06-19 01:11:00,54.0,50.0,30.03,SSE,149,0.0,0.0,86,0.00,,,0.00,,2013-06-19 05:11:00,
2013-06-19 01:23:00,54.0,50.0,30.03,SSE,149,0.0,0.0,86,0.00,,,0.00,,2013-06-19 05:23:00,
2013-06-19 01:32:00,52.0,48.0,30.03,SSE,149,0.0,0.0,87,0.00,,,0.00,,2013-06-19 05:32:00,
2013-06-19 01:43:00,53.0,49.0,30.04,SSE,149,0.0,0.0,87,0.00,,,0.00,,2013-06-19 05:43:00,
2013-06-19 01:52:00,53.0,49.0,30.04,SSE,149,0.0,0.0,87,0.00,,,0.00,,2013-06-19 05:52:00,
2013-06-19 02:02:00,53.0,49.0,30.04,SSE,149,0.0,0.0,87,0.00,,,0.00,,2013-06-19 06:02:00,
2013-06-19 02:11:00,53.0,49.0,30.04,SSE,149,0.0,0.0,87,0.00,,,0.00,,2013-06-19 06:11:00,
2013-06-19 02:22:00,53.0,49.0,30.04,SSE,149,0.0,0.0,87,0.00,,,0.00,,2013-06-19 06:22:00,
2013-06-19 02:34:00,54.0,50.0,30.04,SSE,149,0.0,0.0,87,0.00,,,0.00,,2013-06-19 06:34:00,
2013-06-19 02:42:00,54.0,50.0,30.04,SSE,149,0.0,0.0,87,0.00,,,0.00,,2013-06-19 06:42:00,
2013-06-19 02:52:00,54.0,50.0,30.05,SSE,149,0.0,0.0,86,0.00,,,0.00,,2013-06-19 06:52:00,
2013-06-19 03:01:00,54.0,50.0,30.05,SSE,149,0.0,0.0,86,0.00,,,0.00,,2013-06-19 07:01:00,
2013-06-19 03:12:00,53.0,49.0,30.05,SSE,149,0.0,0.0,85,0.00,,,0.00,,2013-06-19 07:12:00,
2013-06-19 03:22:00,53.0,49.0,30.06,SSE,149,0.0,0.0,85,0.00,,,0.00,,2013-06-19 07:22:00,
2013-06-19 03:33:00,53.0,49.0,30.06,SSE,149,0.0,0.0,86,0.00,,,0.00,,2013-06-19 07:33:00,
2013-06-19 03:43:00,53.0,49.0,30.06,SSE,149,0.0,0.0,86,0.00,,,0.00,,2013-06-19 07:43:00,
2013-06-19 03:53:00,52.0,48.0,30.06,SSE,149,0.0,1.0,86,0.00,,,0.00,,2013-06-19 07:53:00,
2013-06-19 04:02:00,52.0,48.0,30.06,SSE,149,0.0,1.0,86,0.00,,,0.00,,2013-06-19 08:02:00,
2013-06-19 04:11:00,52.0,48.0,30.06,SSE,149,0.0,2.0,86,0.00,,,0.00,,2013-06-19 08:11:00,
2013-06-19 04:22:00,52.0,48.0,30.07,SSE,149,0.0,2.0,85,0.00,,,0.00,,2013-06-19 08:22:00,
2013-06-19 04:34:00,52.0,47.0,30.07,SSE,159,0.0,6.0,84,0.00,,,0.00,,2013-06-19 08:34:00,
2013-06-19 04:43:00,53.0,48.0,30.07,SSE,167,0.0,3.0,83,0.00,,,0.00,,2013-06-19 08:43:00,
2013-06-19 04:53:00,53.0,48.0,30.07,SSE,153,1.0,4.0,82,0.00,,,0.00,,2013-06-19 08:53:00,
2013-06-19 05:02:00,53.0,47.0,30.07,SSE,153,0.0,1.0,81,0.00,,,0.00,,2013-06-19 09:02:00,
2013-06-19 05:12:00,53.0,47.0,30.08,ESE,108,0.0,3.0,80,0.00,,,0.00,,2013-06-19 09:12:00,
2013-06-19 05:22:00,53.0,47.0,30.08,SSE,159,0.0,4.0,79,0.00,,,0.00,,2013-06-19 09:22:00,
2013-06-19 05:34:00,53.0,47.0,30.08,SSE,159,0.0,2.0,79,0.00,,,0.00,,2013-06-19 09:34:00,
2013-06-19 05:44:00,52.0,46.0,30.09,SSE,159,0.0,1.0,79,0.00,,,0.00,,2013-06-19 09:44:00,
2013-06-19 05:53:00,52.0,46.0,30.09,SSE,159,0.0,1.0,79,0.00,,,0.00,,2013-06-19 09:53:00,
2013-06-19 06:02:00,52.0,46.0,30.09,SSE,159,0.0,0.0,79,0.00,,,0.00,,2013-06-19 10:02:00,
2013-06-19 06:12:00,52.0,46.0,30.10,SSE,159,0.0,2.0,79,0.00,,,0.00,,2013-06-19 10:12:00,
2013-06-19 06:22:00,52.0,46.0,30.10,SSE,159,0.0,0.0,79,0.00,,,0.00,,2013-06-19 10:22:00,
2013-06-19 06:33:00,52.0,46.0,30.11,SSE,159,0.0,0.0,80,0.00,,,0.00,,2013-06-19 10:33:00,
2013-06-19 06:42:00,52.0,46.0,30.11,SSE,159,0.0,0.0,80,0.00,,,0.00,,2013-06-19 10:42:00,
2013-06-19 06:52:00,52.0,46.0,30.11,SSE,159,0.0,0.0,80,0.00,,,0.00,,2013-06-19 10:52:00,
2013-06-19 07:02:00,52.0,46.0,30.11,SSE,159,0.0,0.0,81,0.00,,,0.00,,2013-06-19 11:02:00,
2013-06-19 07:12:00,52.0,46.0,30.12,SSE,159,0.0,0.0,80,0.00,,,0.00,,2013-06-19 11:12:00,
2013-06-19 07:22:00,52.0,46.0,30.12,SSE,159,0.0,0.0,80,0.00,,,0.00,,2013-06-19 11:22:00,
2013-06-19 07:33:00,53.0,47.0,30.13,SSE,159,0.0,0.0,79,0.00,,,0.00,,2013-06-19 11:33:00,
2013-06-19 07:43:00,54.0,48.0,30.13,SSE,159,0.0,1.0,79,0.00,,,0.00,,2013-06-19 11:43:00,
2013-06-19 07:54:00,55.0,48.0,30.13,SSE,159,0.0,1.0,77,0.00,,,0.00,,2013-06-19 11:54:00,
2013-06-19 08:02:00,56.0,49.0,30.14,SSE,159,0.0,2.0,76,0.00,,,0.00,,2013-06-19 12:02:00,
2013-06-19 08:12:00,56.0,48.0,30.14,SSE,159,0.0,1.0,75,0.00,,,0.00,,2013-06-19 12:12:00,
2013-06-19 08:22:00,57.0,48.0,30.14,South,169,0.0,3.0,72,0.00,,,0.00,,2013-06-19 12:22:00,
2013-06-19 08:34:00,58.0,48.0,30.14,SSE,161,0.0,3.0,70,0.00,,,0.00,,2013-06-19 12:34:00,
2013-06-19 08:44:00,59.0,49.0,30.14,East,101,1.0,4.0,69,0.00,,,0.00,,2013-06-19 12:44:00,
2013-06-19 08:53:00,60.0,49.0,30.15,ENE,73,0.0,4.0,67,0.00,,,0.00,,2013-06-19 12:53:00,
2013-06-19 09:02:00,60.0,48.0,30.15,ENE,73,0.0,3.0,65,0.00,,,0.00,,2013-06-19 13:02:00,
2013-06-19 09:12:00,61.0,48.0,30.15,East,98,0.0,2.0,63,0.00,,,0.00,,2013-06-19 13:12:00,
2013-06-19 09:22:00,61.0,48.0,30.15,SE,124,1.0,4.0,62,0.00,,,0.00,,2013-06-19 13:22:00,
2013-06-19 09:33:00,61.0,47.0,30.15,SE,138,1.0,4.0,61,0.00,,,0.00,,2013-06-19 13:33:00,
2013-06-19 09:42:00,62.0,50.0,30.16,SE,138,0.0,2.0,64,0.00,,,0.00,,2013-06-19 13:42:00,
2013-06-19 09:53:00,61.0,48.0,30.16,East,94,2.0,3.0,62,0.00,,,0.00,,2013-06-19 13:53:00,
2013-06-19 10:02:00,61.0,49.0,30.16,East,95,0.0,3.0,64,0.00,,,0.00,,2013-06-19 14:02:00,
2013-06-19 10:12:00,62.0,50.0,30.16,East,95,0.0,1.0,65,0.00,,,0.00,,2013-06-19 14:12:00,
2013-06-19 10:22:00,62.0,50.0,30.16,ESE,112,0.0,3.0,65,0.00,,,0.00,,2013-06-19 14:22:00,
2013-06-19 10:33:00,62.0,50.0,30.16,ESE,111,0.0,1.0,65,0.00,,,0.00,,2013-06-19 14:33:00,
2013-06-19 10:44:00,63.0,51.0,30.17,SE,134,1.0,4.0,65,0.00,,,0.00,,2013-06-19 14:44:00,
2013-06-19 10:52:00,63.0,52.0,30.17,ESE,105,1.0,5.0,67,0.00,,,0.00,,2013-06-19 14:52:00,
2013-06-19 11:02:00,63.0,52.0,30.17,ENE,65,2.0,4.0,68,0.00,,,0.00,,2013-06-19 15:02:00,
2013-06-19 11:11:00,63.0,52.0,30.17,ENE,65,0.0,4.0,67,0.00,,,0.00,,2013-06-19 15:11:00,
2013-06-19 11:22:00,62.0,51.0,30.17,SE,130,1.0,5.0,67,0.00,,,0.00,,2013-06-19 15:22:00,
2013-06-19 11:33:00,63.0,52.0,30.17,SSW,202,0.0,5.0,67,0.00,,,0.00,,2013-06-19 15:33:00,
2013-06-19 11:42:00,64.0,52.0,30.17,East,100,0.0,3.0,65,0.00,,,0.00,,2013-06-19 15:42:00,
2013-06-19 11:53:00,64.0,52.0,30.18,North,11,0.0,5.0,65,0.00,,,0.00,,2013-06-19 15:53:00,
2013-06-19 12:01:00,63.0,51.0,30.18,NNE,21,2.0,6.0,64,0.00,,,0.00,,2013-06-19 16:01:00,
2013-06-19 12:11:00,63.0,52.0,30.18,North,5,0.0,4.0,68,0.00,,,0.00,,2013-06-19 16:11:00,
2013-06-19 12:22:00,63.0,51.0,30.18,East,80,0.0,5.0,64,0.00,,,0.00,,2013-06-19 16:22:00,
2013-06-19 12:34:00,64.0,51.0,30.17,NNW,345,1.0,4.0,63,0.00,,,0.00,,2013-06-19 16:34:00,
2013-06-19 12:43:00,64.0,49.0,30.18,NNE,16,2.0,5.0,58,0.00,,,0.00,,2013-06-19 16:43:00,
2013-06-19 12:52:00,64.0,50.0,30.18,South,185,0.0,5.0,61,0.00,,,0.00,,2013-06-19 16:52:00,
2013-06-19 13:02:00,65.0,49.0,30.18,ESE,115,0.0,3.0,57,0.00,,,0.00,,2013-06-19 17:02:00,
2013-06-19 13:12:00,64.0,48.0,30.18,ENE,63,1.0,5.0,56,0.00,,,0.00,,2013-06-19 17:12:00,
2013-06-19 13:22:00,64.0,49.0,30.18,NNE,24,1.0,4.0,58,0.00,,,0.00,,2013-06-19 17:22:00,
2013-06-19 13:34:00,64.0,47.0,30.18,ENE,59,1.0,3.0,53,0.00,,,0.00,,2013-06-19 17:34:00,
2013-06-19 13:43:00,65.0,48.0,30.18,NE,52,1.0,4.0,54,0.00,,,0.00,,2013-06-19 17:43:00,
2013-06-19 13:53:00,65.0,47.0,30.18,NNE,25,0.0,6.0,52,0.00,,,0.00,,2013-06-19 17:53:00,
2013-06-19 14:02:00,64.0,45.0,30.17,SSE,156,0.0,5.0,51,0.00,,,0.00,,2013-06-19 18:02:00,
2013-06-19 14:12:00,65.0,48.0,30.17,SSE,156,0.0,5.0,54,0.00,,,0.00,,2013-06-19 18:12:00,
2013-06-19 14:24:00,65.0,48.0,30.17,East,94,0.0,3.0,54,0.00,,,0.00,,2013-06-19 18:24:00,
2013-06-19 14:33:00,65.0,47.0,30.17,South,187,0.0,7.0,53,0.00,,,0.00,,2013-06-19 18:33:00,
2013-06-19 14:44:00,65.0,47.0,30.17,NNE,24,1.0,4.0,52,0.00,,,0.00,,2013-06-19 18:44:00,
2013-06-19 14:53:00,65.0,46.0,30.18,NNE,24,0.0,5.0,50,0.00,,,0.00,,2013-06-19 18:53:00,
2013-06-19 15:01:00,64.0,45.0,30.17,NE,54,0.0,4.0,51,0.00,,,0.00,,2013-06-19 19:01:00,
2013-06-19 15:12:00,65.0,47.0,30.17,NNE,14,0.0,5.0,52,0.00,,,0.00,,2013-06-19 19:12:00,
2013-06-19 15:22:00,64.0,47.0,30.17,NNE,23,0.0,3.0,53,0.00,,,0.00,,2013-06-19 19:22:00,
2013-06-19 15:32:00,65.0,45.0,30.17,NNE,24,0.0,3.0,49,0.00,,,0.00,,2013-06-19 19:32:00,
2013-06-19 15:43:00,65.0,45.0,30.17,NNE,25,0.0,2.0,49,0.00,,,0.00,,2013-06-19 19:43:00,
2013-06-19 15:53:00,65.0,45.0,30.17,NNE,14,3.0,5.0,48,0.00,,,0.00,,2013-06-19 19:53:00,
2013-06-19 16:02:00,64.0,43.0,30.16,NNE,18,1.0,4.0,47,0.00,,,0.00,,2013-06-19 20:02:00,
2013-06-19 16:11:00,65.0,45.0,30.16,South,190,0.0,5.0,48,0.00,,,0.00,,2013-06-19 20:11:00,
2013-06-19 16:22:00,64.0,42.0,30.17,NNE,28,0.0,5.0,44,0.00,,,0.00,,2013-06-19 20:22:00,
2013-06-19 16:33:00,64.0,43.0,30.16,South,190,1.0,4.0,47,0.00,,,0.00,,2013-06-19 20:33:00,
2013-06-19 16:42:00,64.0,43.0,30.16,South,188,0.0,1.0,47,0.00,,,0.00,,2013-06-19 20:42:00,
2013-06-19 16:52:00,64.0,44.0,30.16,SSW,203,0.0,4.0,49,0.00,,,0.00,,2013-06-19 20:52:00,
2013-06-19 17:02:00,64.0,43.0,30.16,NNE,13,4.0,6.0,46,0.00,,,0.00,,2013-06-19 21:02:00,
2013-06-19 17:12:00,64.0,43.0,30.16,NNE,17,2.0,5.0,47,0.00,,,0.00,,2013-06-19 21:12:00,
2013-06-19 17:22:00,64.0,43.0,30.16,NNE,18,0.0,5.0,47,0.00,,,0.00,,2013-06-19 21:22:00,
2013-06-19 17:33:00,63.0,42.0,30.15,NNE,19,1.0,3.0,46,0.00,,,0.00,,2013-06-19 21:33:00,
2013-06-19 17:44:00,64.0,43.0,30.15,NNE,18,0.0,4.0,47,0.00,,,0.00,,2013-06-19 21:44:00,
2013-06-19 17:52:00,64.0,44.0,30.15,NNE,18,0.0,5.0,48,0.00,,,0.00,,2013-06-19 21:52:00,
2013-06-19 18:02:00,64.0,43.0,30.15,NNE,18,0.0,3.0,47,0.00,,,0.00,,2013-06-19 22:02:00,
2013-06-19 18:11:00,64.0,42.0,30.15,NNE,19,0.0,4.0,45,0.00,,,0.00,,2013-06-19 22:11:00,
2013-06-19 18:22:00,63.0,42.0,30.15,NNE,19,0.0,4.0,47,0.00,,,0.00,,2013-06-19 22:22:00,
2013-06-19 18:34:00,64.0,42.0,30.15,NNE,19,0.0,4.0,45,0.00,,,0.00,,2013-06-19 22:34:00,
2013-06-19 18:43:00,63.0,44.0,30.16,NNE,19,1.0,3.0,49,0.00,,,0.00,,2013-06-19 22:43:00,
2013-06-19 18:53:00,63.0,43.0,30.16,East,98,0.0,5.0,48,0.00,,,0.00,,2013-06-19 22:53:00,
2013-06-19 19:02:00,63.0,43.0,30.15,East,98,0.0,1.0,48,0.00,,,0.00,,2013-06-19 23:02:00,
2013-06-19 19:12:00,62.0,42.0,30.15,East,98,0.0,1.0,48,0.00,,,0.00,,2013-06-19 23:12:00,
2013-06-19 19:23:00,62.0,44.0,30.15,East,98,0.0,1.0,51,0.00,,,0.00,,2013-06-19 23:23:00,
2013-06-19 19:33:00,62.0,45.0,30.15,East,98,0.0,1.0,53,0.00,,,0.00,,2013-06-19 23:33:00,
2013-06-19 19:43:00,62.0,45.0,30.15,East,98,0.0,2.0,54,0.00,,,0.00,,2013-06-19 23:43:00,
2013-06-19 19:52:00,62.0,45.0,30.15,East,98,0.0,1.0,54,0.00,,,0.00,,2013-06-19 23:52:00,
2013-06-19 20:02:00,61.0,45.0,30.16,ESE,106,0.0,1.0,56,0.00,,,0.00,,2013-06-20 00:02:00,
2013-06-19 20:12:00,61.0,45.0,30.16,ESE,106,0.0,1.0,56,0.00,,,0.00,,2013-06-20 00:12:00,
2013-06-19 20:22:00,61.0,46.0,30.16,ESE,106,0.0,1.0,58,0.00,,,0.00,,2013-06-20 00:22:00,
2013-06-19 20:33:00,61.0,47.0,30.16,ESE,106,0.0,0.0,61,0.00,,,0.00,,2013-06-20 00:33:00,
2013-06-19 20:44:00,60.0,46.0,30.16,ESE,106,0.0,0.0,60,0.00,,,0.00,,2013-06-20 00:44:00,
2013-06-19 20:52:00,60.0,47.0,30.16,ESE,106,0.0,0.0,63,0.00,,,0.00,,2013-06-20 00:52:00,
2013-06-19 21:02:00,59.0,46.0,30.16,ESE,106,0.0,0.0,63,0.00,,,0.00,,2013-06-20 01:02:00,
2013-06-19 21:11:00,59.0,46.0,30.16,ESE,106,0.0,0.0,63,0.00,,,0.00,,2013-06-20 01:11:00,
2013-06-19 21:22:00,58.0,46.0,30.16,ESE,106,0.0,0.0,65,0.00,,,0.00,,2013-06-20 01:22:00,
2013-06-19 21:33:00,57.0,46.0,30.16,ESE,106,0.0,0.0,66,0.00,,,0.00,,2013-06-20 01:33:00,
2013-06-19 21:44:00,57.0,46.0,30.17,ESE,106,0.0,0.0,67,0.00,,,0.00,,2013-06-20 01:44:00,
2013-06-19 21:52:00,56.0,45.0,30.17,ESE,106,0.0,0.0,67,0.00,,,0.00,,2013-06-20 01:52:00,
2013-06-19 22:02:00,56.0,46.0,30.18,ESE,106,0.0,0.0,68,0.00,,,0.00,,2013-06-20 02:02:00,
2013-06-19 22:12:00,56.0,47.0,30.19,ESE,106,0.0,0.0,71,0.00,,,0.00,,2013-06-20 02:12:00,
2013-06-19 22:24:00,56.0,47.0,30.19,ESE,106,0.0,0.0,72,0.00,,,0.00,,2013-06-20 02:24:00,
2013-06-19 22:34:00,55.0,47.0,30.19,ESE,106,0.0,0.0,73,0.00,,,0.00,,2013-06-20 02:34:00,
2013-06-19 22:43:00,54.0,46.0,30.19,ESE,106,0.0,0.0,74,0.00,,,0.00,,2013-06-20 02:43:00,
2013-06-19 22:52:00,54.0,47.0,30.19,ESE,106,0.0,0.0,76,0.00,,,0.00,,2013-06-20 02:52:00,
2013-06-19 23:02:00,53.0,46.0,30.19,ESE,106,0.0,0.0,78,0.00,,,0.00,,2013-06-20 03:02:00,
2013-06-19 23:11:00,52.0,46.0,30.19,ESE,106,0.0,1.0,80,0.00,,,0.00,,2013-06-20 03:11:00,
2013-06-19 23:22:00,52.0,46.0,30.19,ESE,106,0.0,1.0,81,0.00,,,0.00,,2013-06-20 03:22:00,
2013-06-19 23:33:00,52.0,47.0,30.19,ESE,106,0.0,0.0,82,0.00,,,0.00,,2013-06-20 03:33:00,
2013-06-19 23:43:00,52.0,47.0,30.19,ESE,106,0.0,0.0,82,0.00,,,0.00,,2013-06-20 03:43:00,
2013-06-19 23:54:00,51.0,46.0,30.20,ESE,106,0.0,0.0,82,0.00,,,0.00,,2013-06-20 03:54:00,